OM3WYM-13 Weather Reports


time (UTC)temp
C
wind
direction
speed
KPH
gust
KPH
rain 1hr
cm
rain 24hr
cm
rain mn
cm
humidity
%
barometer
mb
20260508013008 12 0.0 0.0 0.00 0.00 0.00 1014.1
20260508012008 12 0.0 0.0 0.00 0.00 0.00 1014.4
20260508011008 12 0.0 0.0 0.00 0.00 0.00 1014.3
20260508010008 12 0.0 0.0 0.00 0.00 0.00 1014.6
20260508005008 12 0.0 0.0 0.00 0.00 0.00 1014.7
20260508004008 12 0.0 0.0 0.00 0.00 0.00 1014.7
20260508003008 12 0.0 0.0 0.00 0.00 0.00 1014.6
20260508002008 12 0.0 0.0 0.00 0.00 0.00 1014.7
20260508001008 12 0.0 0.0 0.00 0.00 0.00 1014.7
20260508000008 12 0.0 0.0 0.00 0.00 0.00 1014.5
20260507235008 12 0.0 0.0 0.00 0.00 0.00 1014.7
20260507234008 12 0.0 0.0 0.00 0.00 0.00 1014.6
20260507233008 12 0.0 0.0 0.00 0.00 0.00 1014.6
20260507232008 12 0.0 0.0 0.00 0.00 0.00 1014.8
20260507231008 12 0.0 0.0 0.00 0.00 0.00 1014.6
20260507230008 12 0.0 0.0 0.00 0.00 0.00 1014.7
20260507225008 12 0.0 0.0 0.00 0.00 0.00 1014.8
20260507224008 13 0.0 0.0 0.00 0.00 0.00 1014.8
20260507223008 13 0.0 0.0 0.00 0.00 0.00 1014.8
20260507222008 13 0.0 0.0 0.00 0.00 0.00 1014.8
20260507221008 13 0.0 0.0 0.00 0.00 0.00 1014.6
20260507220008 13 0.0 0.0 0.00 0.00 0.00 1014.4
20260507215009 13 0.0 0.0 0.00 0.00 0.00 1014.3
20260507214008 13 0.0 0.0 0.00 0.00 0.00 1014.3
20260507213008 13 0.0 0.0 0.00 0.00 0.00 1014.3
20260507212008 13 0.0 0.0 0.00 0.00 0.00 1014.1
20260507210008 13 0.0 0.0 0.00 0.00 0.00 1013.9
20260507205008 13 0.0 0.0 0.00 0.00 0.00 1014.0
20260507204008 13 0.0 0.0 0.00 0.00 0.00 1013.9
20260507203008 13 0.0 0.0 0.00 0.00 0.00 32 1013.8
20260507202008 13 0.0 0.0 0.00 0.00 0.00 40 1013.7
20260507201008 13 0.0 0.0 0.00 0.00 0.00 50 1013.7
20260507200008 13 0.0 0.0 0.00 0.00 0.00 65 1013.6
20260507195008 13 0.0 0.0 0.00 0.00 0.00 81 1013.5
20260507194008 13 0.0 0.0 0.00 0.00 0.00 97 1013.6
20260507193008 13 0.0 0.0 0.00 0.00 0.00 99 1013.6
20260507192008 14 0.0 0.0 0.00 0.00 0.00 99 1013.6
20260507191008 13 0.0 0.0 0.00 0.00 0.00 99 1013.5
20260507190008 14 0.0 0.0 0.00 0.00 0.00 99 1013.4
20260507185008 14 0.0 0.0 0.00 0.00 0.00 99 1013.3
20260507184008 16 0.0 0.0 0.00 0.00 0.00 72 1012.8
20260507183008 17 0.0 0.0 0.00 0.00 0.00 70 1012.6
20260507182008 17 0.0 0.0 0.00 0.00 0.00 69 1012.5
20260507181008 17 0.0 0.0 0.00 0.00 0.00 68 1012.4
20260507180008 17 0.0 0.0 0.00 0.00 0.00 66 1012.3
20260507175008 17 0.0 0.0 0.00 0.00 0.00 66 1012.2
20260507174008 17 0.0 0.0 0.00 0.00 0.00 65 1012.2
20260507173008 17 0.0 0.0 0.00 0.00 0.00 64 1012.2
20260507172008 18 0.0 0.0 0.00 0.00 0.00 63 1012.3
20260507171008 18 0.0 0.0 0.00 0.00 0.00 62 1012.1
20260507170008 18 0.0 0.0 0.00 0.00 0.00 61 1012.0
20260507165008 18 0.0 0.0 0.00 0.00 0.00 59 1011.8
20260507164008 19 0.0 0.0 0.00 0.00 0.00 57 1011.8
20260507163008 20 0.0 0.0 0.00 0.00 0.00 56 1011.8
20260507162008 20 0.0 0.0 0.00 0.00 0.00 53 1011.6
20260507161008 20 0.0 0.0 0.00 0.00 0.00 55 1011.7
20260507160008 21 0.0 0.0 0.00 0.00 0.00 52 1011.5
20260507155008 22 0.0 0.0 0.00 0.00 0.00 47 1011.4
20260507154009 23 0.0 0.0 0.00 0.00 0.00 46 1011.4
20260507153008 24 0.0 0.0 0.00 0.00 0.00 44 1011.4
20260507152008 24 0.0 0.0 0.00 0.00 0.00 43 1011.6
20260507151008 23 0.0 0.0 0.00 0.00 0.00 46 1011.7
20260507150008 21 0.0 0.0 0.00 0.00 0.00 51 1012.0
20260507145008 20 0.0 0.0 0.00 0.00 0.00 54 1012.1
20260507144008 19 0.0 0.0 0.00 0.00 0.00 58 1012.4
20260507143008 19 0.0 0.0 0.00 0.00 0.00 59 1012.3
20260507142008 18 0.0 0.0 0.00 0.00 0.00 60 1012.4
20260507141008 18 0.0 0.0 0.00 0.00 0.00 59 1012.5
20260507140008 18 0.0 0.0 0.00 0.00 0.00 59 1012.5
20260507135008 18 0.0 0.0 0.00 0.00 0.00 57 1012.4
20260507134008 18 0.0 0.0 0.00 0.00 0.00 55 1012.4
20260507133008 19 0.0 0.0 0.00 0.00 0.00 55 1012.4
20260507132008 20 0.0 0.0 0.00 0.00 0.00 53 1012.3
20260507131008 20 0.0 0.0 0.00 0.00 0.00 51 1012.2
20260507130008 20 0.0 0.0 0.00 0.00 0.00 51 1012.0
20260507125008 20 0.0 0.0 0.00 0.00 0.00 48 1012.1
20260507124008 20 0.0 0.0 0.00 0.00 0.00 45 1011.8
20260507123008 20 0.0 0.0 0.00 0.00 0.00 43 1011.6
20260507122008 21 0.0 0.0 0.00 0.00 0.00 42 1011.7
20260507121008 21 0.0 0.0 0.00 0.00 0.00 45 1011.7
20260507120008 21 0.0 0.0 0.00 0.00 0.00 47 1011.8
20260507115008 21 0.0 0.0 0.00 0.00 0.00 46 1011.9
20260507114008 21 0.0 0.0 0.00 0.00 0.00 45 1012.0
20260507113008 21 0.0 0.0 0.00 0.00 0.00 48 1012.1
20260507112008 21 0.0 0.0 0.00 0.00 0.00 49 1012.2
20260507111008 20 0.0 0.0 0.00 0.00 0.00 49 1012.2
20260507110008 20 0.0 0.0 0.00 0.00 0.00 50 1012.4
20260507105008 20 0.0 0.0 0.00 0.00 0.00 49 1012.1
20260507104011 20 0.0 0.0 0.00 0.00 0.00 49 1012.2
20260507103008 20 0.0 0.0 0.00 0.00 0.00 49 1012.2
20260507102008 20 0.0 0.0 0.00 0.00 0.00 50 1012.1
20260507101008 20 0.0 0.0 0.00 0.00 0.00 51 1012.2
20260507100008 20 0.0 0.0 0.00 0.00 0.00 51 1012.2
20260507095008 20 0.0 0.0 0.00 0.00 0.00 51 1012.2
20260507094008 20 0.0 0.0 0.00 0.00 0.00 51 1012.2
20260507093008 20 0.0 0.0 0.00 0.00 0.00 51 1012.2
20260507092008 20 0.0 0.0 0.00 0.00 0.00 51 1012.1
20260507091008 20 0.0 0.0 0.00 0.00 0.00 50 1011.9
20260507090008 20 0.0 0.0 0.00 0.00 0.00 50 1011.8
20260507085008 20 0.0 0.0 0.00 0.00 0.00 51 1011.8
20260507084008 20 0.0 0.0 0.00 0.00 0.00 51 1011.6
20260507083008 20 0.0 0.0 0.00 0.00 0.00 51 1011.5
20260507082008 20 0.0 0.0 0.00 0.00 0.00 51 1011.3
20260507081008 20 0.0 0.0 0.00 0.00 0.00 52 1011.5
20260507080008 20 0.0 0.0 0.00 0.00 0.00 52 1011.3
20260507075008 19 0.0 0.0 0.00 0.00 0.00 54 1011.3
20260507074008 19 0.0 0.0 0.00 0.00 0.00 55 1011.3
20260507073008 19 0.0 0.0 0.00 0.00 0.00 55 1011.2
20260507072008 18 0.0 0.0 0.00 0.00 0.00 57 1011.3
20260507071008 18 0.0 0.0 0.00 0.00 0.00 58 1011.3
20260507070011 18 0.0 0.0 0.00 0.00 0.00 56 1011.1
20260507065008 18 0.0 0.0 0.00 0.00 0.00 56 1011.0
20260507064008 18 0.0 0.0 0.00 0.00 0.00 57 1010.9
20260507063008 17 0.0 0.0 0.00 0.00 0.00 59 1011.2
20260507062008 17 0.0 0.0 0.00 0.00 0.00 61 1011.3
20260507061008 17 0.0 0.0 0.00 0.00 0.00 61 1011.2
20260507060008 16 0.0 0.0 0.00 0.00 0.00 61 1011.1
20260507055008 16 0.0 0.0 0.00 0.00 0.00 64 1011.1
20260507054008 16 0.0 0.0 0.00 0.00 0.00 66 1011.3
20260507053008 15 0.0 0.0 0.00 0.00 0.00 71 1011.3
20260507052008 13 0.0 0.0 0.00 0.00 0.00 75 1011.5
20260507051008 13 0.0 0.0 0.00 0.00 0.00 78 1011.6
20260507050008 12 0.0 0.0 0.00 0.00 0.00 80 1011.4
20260507045008 12 0.0 0.0 0.00 0.00 0.00 81 1011.4
20260507044008 12 0.0 0.0 0.00 0.00 0.00 81 1011.6
20260507043008 12 0.0 0.0 0.00 0.00 0.00 83 1011.7
20260507042008 11 0.0 0.0 0.00 0.00 0.00 84 1011.8
20260507041008 11 0.0 0.0 0.00 0.00 0.00 85 1011.8
20260507040008 11 0.0 0.0 0.00 0.00 0.00 86 1011.8
20260507035008 11 0.0 0.0 0.00 0.00 0.00 87 1011.8
20260507034008 11 0.0 0.0 0.00 0.00 0.00 87 1011.7
20260507033008 11 0.0 0.0 0.00 0.00 0.00 88 1011.6
20260507032008 11 0.0 0.0 0.00 0.00 0.00 87 1011.7
20260507031008 11 0.0 0.0 0.00 0.00 0.00 86 1011.8
20260507030008 11 0.0 0.0 0.00 0.00 0.00 84 1011.6
20260507025008 11 0.0 0.0 0.00 0.00 0.00 86 1011.5
20260507024008 11 0.0 0.0 0.00 0.00 0.00 85 1011.3
20260507023008 11 0.0 0.0 0.00 0.00 0.00 86 1011.1
20260507022008 11 0.0 0.0 0.00 0.00 0.00 86 1010.9
20260507021008 11 0.0 0.0 0.00 0.00 0.00 84 1010.8
20260507020009 11 0.0 0.0 0.00 0.00 0.00 84 1010.8
20260507015008 11 0.0 0.0 0.00 0.00 0.00 84 1010.8
20260507014008 11 0.0 0.0 0.00 0.00 0.00 83 1010.9